• Em Portugal
  • Lista de países
  • Para 7 dias
  • Temperatura da água
  • Mapas de satélite
  • Mapa do tempo
  • Widgets de tempo
  • user-avatar
    Iniciar Sessão

    Previsão horária em Shaki

    Hoje, 23 Setembro, Domingo

    Tempo Temperatura Precipitação Vento Pressão Humidade
    00:00 +21°C° 0.8 mm 2 m/s 737 mmHg 75%
    01:00 +20°C° 0.4 mm 2 m/s 737 mmHg 76%
    02:00 +21°C° 0.4 mm 1 m/s 737 mmHg 76%
    03:00 +21°C° 0 mm 1 m/s 736 mmHg 77%
    04:00 +20°C° 0.2 mm 1 m/s 737 mmHg 77%
    05:00 +20°C° 0.2 mm 1 m/s 737 mmHg 77%
    06:00 +20°C° 0.2 mm 1 m/s 737 mmHg 76%
    07:00 +21°C° 0.1 mm 1 m/s 737 mmHg 71%
    08:00 +22°C° 0.1 mm 1 m/s 737 mmHg 66%
    09:00 +24°C° 0 mm 1 m/s 736 mmHg 60%
    10:00 +24°C° 0 mm 1 m/s 736 mmHg 58%
    11:00 +25°C° 0 mm 1 m/s 736 mmHg 55%
    12:00 +26°C° 0 mm 2 m/s 736 mmHg 53%
    13:00 +26°C° 0 mm 2 m/s 736 mmHg 52%
    14:00 +27°C° 0 mm 1 m/s 736 mmHg 52%
    15:00 +27°C° 0 mm 1 m/s 735 mmHg 51%
    16:00 +26°C° 0 mm 1 m/s 735 mmHg 55%
    17:00 +25°C° 0 mm 1 m/s 735 mmHg 60%
    18:00 +24°C° 0 mm 1 m/s 735 mmHg 64%
    19:00 +23°C° 0 mm 1 m/s 736 mmHg 66%
    20:00 +23°C° 0 mm 1 m/s 736 mmHg 67%
    21:00 +22°C° 0 mm 1 m/s 736 mmHg 69%
    22:00 +22°C° 0 mm 1 m/s 736 mmHg 69%
    23:00 +22°C° 0 mm 1 m/s 736 mmHg 70%

    Amanhã, 24 Setembro, Segunda-feira

    Tempo Temperatura Precipitação Vento Pressão Humidade
    00:00 +21°C° 0 mm 1 m/s 736 mmHg 70%
    01:00 +21°C° 0 mm 1 m/s 736 mmHg 70%
    02:00 +21°C° 0 mm 1 m/s 736 mmHg 69%
    03:00 +21°C° 0 mm 1 m/s 736 mmHg 69%
    04:00 +20°C° 0 mm 2 m/s 737 mmHg 68%
    05:00 +19°C° 0 mm 2 m/s 737 mmHg 67%
    06:00 +19°C° 0 mm 2 m/s 737 mmHg 66%
    07:00 +21°C° 0 mm 2 m/s 737 mmHg 60%
    08:00 +24°C° 0 mm 3 m/s 737 mmHg 54%
    09:00 +26°C° 0 mm 3 m/s 738 mmHg 48%
    10:00 +27°C° 0 mm 3 m/s 738 mmHg 46%
    11:00 +28°C° 0 mm 3 m/s 738 mmHg 43%
    12:00 +29°C° 0 mm 2 m/s 737 mmHg 41%
    13:00 +29°C° 0 mm 2 m/s 737 mmHg 41%
    14:00 +29°C° 0 mm 2 m/s 737 mmHg 41%
    15:00 +29°C° 0 mm 2 m/s 737 mmHg 41%
    16:00 +28°C° 0 mm 2 m/s 737 mmHg 46%
    17:00 +26°C° 0 mm 2 m/s 737 mmHg 50%
    18:00 +25°C° 0 mm 2 m/s 737 mmHg 55%
    19:00 +24°C° 0 mm 2 m/s 737 mmHg 57%
    20:00 +24°C° 0 mm 2 m/s 737 mmHg 59%
    21:00 +22°C° 0 mm 3 m/s 738 mmHg 60%
    22:00 +21°C° 0 mm 3 m/s 737 mmHg 62%
    23:00 +21°C° 0 mm 2 m/s 737 mmHg 63%

    Depois de amanhã, 25 Setembro, Terça-feira

    Tempo Temperatura Precipitação Vento Pressão Humidade
    00:00 +21°C° 0 mm 2 m/s 737 mmHg 64%
    01:00 +20°C° 0 mm 2 m/s 737 mmHg 64%
    02:00 +20°C° 0 mm 2 m/s 736 mmHg 63%
    03:00 +20°C° 0 mm 2 m/s 736 mmHg 63%
    04:00 +21°C° 0 mm 1 m/s 736 mmHg 63%
    05:00 +21°C° 0 mm 1 m/s 736 mmHg 63%
    06:00 +20°C° 0 mm 1 m/s 735 mmHg 62%
    07:00 +21°C° 0 mm 2 m/s 735 mmHg 57%
    08:00 +24°C° 0 mm 2 m/s 735 mmHg 51%
    09:00 +26°C° 0 mm 2 m/s 735 mmHg 46%
    10:00 +27°C° 0 mm 2 m/s 734 mmHg 43%
    11:00 +28°C° 0 mm 2 m/s 734 mmHg 41%
    12:00 +29°C° 0 mm 2 m/s 733 mmHg 38%
    13:00 +30°C° 0 mm 2 m/s 733 mmHg 37%
    14:00 +30°C° 0 mm 2 m/s 733 mmHg 36%
    15:00 +30°C° 0 mm 2 m/s 732 mmHg 35%
    16:00 +29°C° 0 mm 1 m/s 732 mmHg 40%
    17:00 +27°C° 0 mm 1 m/s 732 mmHg 45%
    18:00 +23°C° 0 mm 0 m/s 732 mmHg 50%
    19:00 +25°C° 0 mm 1 m/s 733 mmHg 50%
    20:00 +24°C° 0 mm 1 m/s 733 mmHg 50%
    21:00 +24°C° 0 mm 1 m/s 734 mmHg 51%
    22:00 +24°C° 0 mm 1 m/s 734 mmHg 51%
    23:00 +23°C° 0 mm 1 m/s 734 mmHg 52%

    26 Setembro, Quarta-feira

    Tempo Temperatura Precipitação Vento Pressão Humidade
    00:00 +23°C° 0 mm 1 m/s 734 mmHg 52%
    01:00 +23°C° 0 mm 1 m/s 734 mmHg 52%
    02:00 +22°C° 0 mm 1 m/s 734 mmHg 53%
    03:00 +22°C° 0 mm 1 m/s 734 mmHg 53%
    04:00 +22°C° 0 mm 1 m/s 734 mmHg 54%
    05:00 +20°C° 0 mm 2 m/s 734 mmHg 56%
    06:00 +20°C° 0 mm 2 m/s 735 mmHg 57%
    07:00 +23°C° 0 mm 2 m/s 735 mmHg 51%
    08:00 +25°C° 0 mm 3 m/s 736 mmHg 46%
    09:00 +27°C° 0 mm 3 m/s 736 mmHg 40%
    10:00 +28°C° 0 mm 3 m/s 736 mmHg 38%
    11:00 +28°C° 0 mm 2 m/s 736 mmHg 36%
    12:00 +29°C° 0 mm 2 m/s 736 mmHg 33%
    13:00 +29°C° 0 mm 2 m/s 736 mmHg 34%
    14:00 +29°C° 0 mm 3 m/s 736 mmHg 35%
    15:00 +29°C° 0 mm 3 m/s 736 mmHg 35%
    16:00 +28°C° 0 mm 3 m/s 736 mmHg 42%
    17:00 +26°C° 0 mm 3 m/s 737 mmHg 49%
    18:00 +24°C° 0 mm 3 m/s 737 mmHg 57%
    19:00 +24°C° 0 mm 3 m/s 737 mmHg 60%
    20:00 +22°C° 0 mm 4 m/s 738 mmHg 64%
    21:00 +21°C° 0 mm 4 m/s 738 mmHg 68%
    22:00 +21°C° 0 mm 4 m/s 738 mmHg 70%
    23:00 +20°C° 0 mm 3 m/s 738 mmHg 72%

    27 Setembro, Quinta-feira

    Tempo Temperatura Precipitação Vento Pressão Humidade
    00:00 +20°C° 0 mm 3 m/s 738 mmHg 74%
    01:00 +19°C° 0 mm 3 m/s 738 mmHg 74%
    02:00 +19°C° 0 mm 2 m/s 738 mmHg 74%
    03:00 +19°C° 0 mm 2 m/s 738 mmHg 74%
    04:00 +19°C° 0 mm 2 m/s 739 mmHg 74%
    05:00 +19°C° 0 mm 2 m/s 739 mmHg 73%
    06:00 +18°C° 0 mm 2 m/s 739 mmHg 73%
    07:00 +19°C° 0 mm 2 m/s 739 mmHg 68%
    08:00 +20°C° 0 mm 2 m/s 739 mmHg 64%
    09:00 +23°C° 0 mm 2 m/s 740 mmHg 60%
    10:00 +23°C° 0 mm 2 m/s 739 mmHg 57%
    11:00 +24°C° 0 mm 2 m/s 739 mmHg 54%
    12:00 +25°C° 0 mm 2 m/s 739 mmHg 52%
    13:00 +25°C° 0 mm 2 m/s 739 mmHg 51%
    14:00 +25°C° 0 mm 2 m/s 739 mmHg 51%
    15:00 +25°C° 0 mm 2 m/s 738 mmHg 51%
    16:00 +24°C° 0 mm 2 m/s 739 mmHg 57%
    17:00 +23°C° 0 mm 2 m/s 739 mmHg 63%
    18:00 +21°C° 0 mm 2 m/s 739 mmHg 69%
    19:00 +20°C° 0 mm 2 m/s 739 mmHg 69%
    20:00 +20°C° 0 mm 2 m/s 740 mmHg 70%
    21:00 +20°C° 0 mm 2 m/s 740 mmHg 70%
    22:00 +19°C° 0 mm 2 m/s 740 mmHg 70%
    23:00 +19°C° 0 mm 2 m/s 740 mmHg 71%

    28 Setembro, Sexta-feira

    Tempo Temperatura Precipitação Vento Pressão Humidade
    00:00 +18°C° 0 mm 2 m/s 740 mmHg 72%
    01:00 +19°C° 0 mm 1 m/s 740 mmHg 73%
    02:00 +19°C° 0 mm 1 m/s 740 mmHg 74%
    03:00 +19°C° 0 mm 1 m/s 740 mmHg 74%
    04:00 +18°C° 0 mm 1 m/s 740 mmHg 76%
    05:00 +18°C° 0 mm 1 m/s 740 mmHg 77%
    06:00 +18°C° 0 mm 1 m/s 740 mmHg 78%
    07:00 +20°C° 0 mm 1 m/s 740 mmHg 74%
    08:00 +21°C° 0 mm 1 m/s 740 mmHg 69%
    09:00 +23°C° 0 mm 2 m/s 740 mmHg 64%
    10:00 +24°C° 0 mm 2 m/s 740 mmHg 61%
    11:00 +25°C° 0 mm 2 m/s 739 mmHg 57%
    12:00 +26°C° 0 mm 3 m/s 739 mmHg 54%
    13:00 +27°C° 0 mm 3 m/s 738 mmHg 53%
    14:00 +27°C° 0 mm 3 m/s 738 mmHg 52%
    15:00 +27°C° 0 mm 3 m/s 738 mmHg 52%
    16:00 +26°C° 0 mm 3 m/s 738 mmHg 59%
    17:00 +24°C° 0 mm 2 m/s 738 mmHg 65%
    18:00 +23°C° 0 mm 2 m/s 738 mmHg 72%
    19:00 +21°C° 0 mm 2 m/s 738 mmHg 73%
    20:00 +21°C° 0 mm 2 m/s 738 mmHg 73%
    21:00 +21°C° 0 mm 2 m/s 738 mmHg 74%
    22:00 +20°C° 0 mm 2 m/s 738 mmHg 74%
    23:00 +20°C° 0 mm 2 m/s 738 mmHg 73%
    Mostrar mais